Flag for Kazakhstan Weather past 2 weeks in Qyzylorda, Kazakhstan

Now
39 °F

Sunny.


Feels Like: 30 °F
Forecast: 29 / 41 °F
Wind: 17 mph from Southwest

Location: Kzyl-Orda

Current Time: Dec 26, 2014 at 2:41:07 PM

Latest Report: Dec 26, 2014 at 2:00 PM


Visibility: 10 mi

Pressure: 30.27 "Hg

Humidity: 70%

Dew point: 30 °F

Location of QyzylordaLocation

Historic Weather in Qyzylorda — Graph

°F

Qyzylorda temperature yesterday

Maximum temperature yesterday: 41 °F (at 11:30 AM)
Minimum temperature yesterday: 32 °F (at 12:00 AM)
Average temperature yesterday: 37 °F

Past Weeks' High & Low Weather Summary

 TemperatureHumidityPressure
High41 °F (Dec 20, 3:00 PM)100% (Dec 17, 2:00 AM)30.66 "Hg (Dec 17, 2:00 AM)
Low7 °F (Dec 15, 8:30 AM)55% (Dec 13, 2:30 PM)29.80 "Hg (Dec 25, 12:30 PM)
Average24 °F84%30.29 "Hg
* Reported Dec 11 1:00 PM — Dec 26 1:30 PM, Qyzylorda, Weather by CustomWeather, © 2014

Note: Actual official high and low records may vary slightly from our data, if they occured in-between our weather recording intervals... More about our weather records

Advertising

Qyzylorda weather history for previous 24 hours

 ConditionsComfort  
Time TempWeatherWind HumidityBarometerVisibility
1:30 PM
Dec 26
37 °FSunny.17 mph81%30.30 "Hg10 mi
1:00 PM37 °FSunny.17 mph75%30.30 "Hg10 mi
12:30 PM37 °FSunny.17 mph75%30.33 "Hg10 mi
12:00 PM36 °FSunny.17 mph81%30.33 "Hg10 mi
11:30 AM36 °FSunny.15 mph81%30.33 "Hg10 mi
11:00 AM34 °FSunny.15 mph81%30.33 "Hg10 mi
10:30 AM34 °FSunny.15 mph81%30.33 "Hg10 mi
10:00 AM34 °FClear.15 mph81%30.33 "Hg10 mi
9:30 AM34 °FClear.15 mph81%30.33 "Hg10 mi
8:30 AM32 °FClear.13 mph87%30.30 "Hg10 mi
8:00 AM30 °FClear.13 mph86%30.33 "Hg10 mi
7:30 AM30 °FClear.13 mph86%30.30 "Hg10 mi
7:00 AM30 °FPartly cloudy.13 mph86%30.30 "HgN/A
6:00 AM30 °FPartly cloudy.13 mph86%30.30 "HgN/A
5:00 AM30 °FPartly cloudy.13 mph86%30.30 "HgN/A
4:00 AM32 °FPartly cloudy.13 mph80%30.30 "HgN/A
3:00 AM30 °FPartly cloudy.10 mph86%30.27 "HgN/A
2:00 AM30 °FPartly cloudy.10 mph80%30.27 "HgN/A
1:00 AM32 °FClear.13 mph75%30.24 "Hg10 mi
12:00 AM34 °FSnow flurries. Overcast.20 mph81%30.18 "HgN/A
11:00 PM
Dec 25
36 °FClear.15 mph81%30.15 "Hg10 mi
10:00 PM36 °FOvercast.15 mph87%30.12 "HgN/A
9:00 PM36 °FOvercast.17 mph93%30.09 "HgN/A
8:00 PM36 °FOvercast.13 mph93%30.04 "HgN/A
7:30 PM36 °FOvercast.15 mph93%30.04 "HgN/A
7:00 PM36 °FOvercast.15 mph93%30.01 "HgN/A
6:30 PM36 °FSprinkles. Overcast.15 mph93%30.01 "Hg6 mi
6:00 PM36 °FOvercast.20 mph93%29.98 "HgN/A
5:30 PM37 °FOvercast.20 mph87%29.95 "HgN/A
5:00 PM37 °FOvercast.17 mph87%29.92 "HgN/A
4:30 PM39 °FOvercast.22 mph87%29.92 "HgN/A
4:00 PM39 °FOvercast.24 mph93%29.86 "HgN/A
3:30 PM39 °FOvercast.22 mph93%29.86 "HgN/A
3:00 PM39 °FOvercast.22 mph93%29.83 "HgN/A
2:30 PM39 °FLight rain. Overcast.24 mph93%29.83 "Hg6 mi
2:00 PM39 °FSprinkles. Overcast.24 mph93%29.83 "Hg4 mi
Weather by CustomWeather, © 2014

See weather overviewHow to use our weather pages